Wind_Speed
42 42 43 44 43 41 39 37 36 37 35 33 33 34 35 35 36 38 37 35 36 37 38 38 36 35 35 32 27 24 23 23 23 23 24 25 25 26 26 26 25 24 24 24 24 23 22 21 21 20 19 19 19 20 20 20 20 21 21 22 23 23 23 24 24 24 24 24 25 25 26 26 27 27 27 27 26 26 26 26 25 23 23 24 26 28
43 43 44 43 42 40 37 36 37 36 35 34 34 34 35 35 37 38 36 36 37 36 38 40 37 35 34 30 26 24 25 24 23 24 24 25 26 26 26 26 25 24 24 24 24 23 22 21 20 19 19 19 19 19 19 19 19 20 21 21 22 22 22 23 23 23 23 24 25 26 27 28 28 29 30 29 27 27 28 28 28 26 25 25 26 27
44 44 44 44 43 40 38 38 38 36 36 36 34 35 35 36 39 39 36 37 37 37 40 40 37 34 31 28 25 25 24 23 22 23 24 24 24 25 25 25 24 24 24 24 24 23 22 21 20 20 20 20 19 19 19 19 19 20 20 20 21 21 21 22 22 22 23 23 24 26 28 29 30 30 31 30 29 29 28 28 28 28 27 26 26 26
45 44 44 43 42 40 40 40 39 38 38 37 36 35 35 37 39 38 37 38 38 39 40 38 35 33 30 28 26 25 24 22 21 22 22 21 21 22 22 22 22 23 23 23 22 21 21 20 20 20 21 21 20 20 19 19 19 19 20 20 21 21 21 21 22 22 23 23 24 26 28 30 31 30 30 30 30 30 30 28 26 26 27 26 26 26
44 43 43 41 40 41 40 40 39 39 38 38 37 35 35 38 38 37 38 38 38 39 39 36 34 33 30 27 27 26 24 23 23 22 21 21 21 21 21 20 20 21 22 21 20 20 20 20 20 21 22 22 22 22 20 19 19 19 19 19 19 20 20 21 21 22 22 23 24 26 28 30 31 31 30 30 31 30 29 28 26 24 25 25 25 25
44 45 42 39 41 42 41 39 38 39 38 38 37 36 38 38 37 38 39 38 38 39 38 35 33 34 32 29 28 27 25 25 24 23 22 22 22 22 21 21 21 22 22 20 19 19 19 19 19 19 20 21 21 21 21 20 20 20 19 19 19 19 19 19 20 20 21 22 23 25 27 29 31 31 31 31 31 31 30 28 25 23 23 24 25 25
46 46 42 41 43 41 40 39 38 39 39 38 37 37 39 38 37 39 38 36 36 37 38 35 32 31 31 30 29 27 26 27 25 24 24 23 24 24 23 23 23 22 21 19 19 19 18 18 17 17 18 19 21 21 21 21 20 19 19 20 21 21 20 19 19 20 20 22 23 24 25 27 29 30 31 31 31 31 31 29 27 24 23 24 24 25
48 46 42 44 43 41 40 39 38 39 39 39 38 37 36 35 36 37 37 35 33 36 38 34 32 32 30 31 29 27 28 28 26 25 25 25 25 24 24 23 22 20 19 18 18 18 17 17 16 16 17 19 21 21 21 20 20 19 19 20 21 22 21 21 20 21 21 22 23 24 25 26 27 28 29 30 30 30 30 30 28 26 25 23 23 24
46 43 41 42 42 42 40 38 38 38 38 39 38 36 36 35 35 36 36 36 36 38 37 34 36 34 30 29 28 29 31 30 28 26 25 26 25 24 24 22 20 19 18 18 18 17 17 17 17 16 17 19 20 20 19 19 20 20 20 21 21 22 22 21 22 22 23 24 25 26 26 26 27 27 28 28 29 30 30 29 27 26 25 24 23 23
42 38 38 38 38 38 38 39 38 35 37 38 35 34 35 35 36 37 37 38 39 39 36 36 37 32 27 28 28 31 34 32 29 27 27 26 25 24 23 21 20 19 19 19 18 18 18 19 17 16 17 18 19 18 18 19 20 21 21 22 22 22 23 23 23 24 25 26 27 28 28 29 28 28 27 27 27 29 29 29 27 26 25 25 25 24
42 37 37 38 38 38 38 38 36 36 37 35 33 34 35 35 37 38 38 38 39 39 36 36 37 31 26 28 31 34 35 33 30 29 28 27 26 24 22 21 20 19 19 19 19 19 20 20 19 17 16 16 17 17 18 19 20 20 21 21 22 23 24 25 25 25 26 27 28 29 30 30 31 30 29 28 27 27 28 28 28 26 26 27 26 26
42 39 40 41 41 42 41 38 37 38 39 36 35 35 36 37 38 38 38 39 41 38 35 37 36 32 29 31 34 36 35 33 31 30 29 27 24 22 21 20 20 19 19 19 19 19 20 21 20 17 15 15 16 17 18 19 19 20 20 21 23 24 25 26 26 26 27 28 29 31 31 32 32 33 32 31 30 29 28 27 27 27 28 28 27 27
41 40 43 43 42 43 42 41 41 41 39 39 39 39 39 39 40 40 39 42 41 35 36 38 34 32 33 34 35 36 36 33 31 30 29 26 24 22 21 21 20 19 19 18 18 18 20 21 19 16 15 15 15 16 17 18 18 19 21 22 23 24 25 26 27 28 28 29 31 32 32 33 34 35 35 33 32 32 31 29 28 28 29 29 28 27
43 44 46 45 44 44 43 45 45 44 43 42 42 42 42 42 43 43 42 42 39 36 40 38 32 34 38 37 36 36 35 33 31 31 29 26 24 22 21 21 20 19 18 17 17 18 19 19 18 16 15 15 15 16 17 18 19 20 21 22 23 25 26 28 29 30 31 32 33 33 33 34 34 35 36 36 34 34 33 32 31 30 30 31 28 26
43 46 48 47 47 46 45 45 44 42 42 42 42 42 43 43 43 44 43 38 35 37 41 38 35 37 38 37 37 36 35 34 32 32 30 27 24 22 20 19 18 18 17 17 18 18 18 17 17 16 16 15 15 16 17 18 19 20 21 22 24 26 28 29 31 32 33 34 35 36 35 35 35 35 36 36 36 36 34 33 32 32 32 32 29 26
40 42 43 44 45 44 42 42 41 40 39 40 42 42 45 43 36 39 41 34 31 36 40 40 40 39 38 37 37 36 35 35 33 32 31 28 25 23 21 19 18 17 17 18 19 19 18 17 17 16 15 15 16 17 18 18 19 20 21 23 25 27 29 30 31 32 33 34 35 36 35 35 35 35 36 36 36 37 36 34 34 33 34 33 30 26
38 37 40 43 41 39 38 37 38 39 38 41 43 44 48 43 33 36 42 38 35 37 38 40 41 40 39 38 39 39 37 35 34 34 32 29 26 25 23 20 18 18 19 19 19 18 17 17 16 16 15 16 17 17 18 18 19 21 23 25 27 29 30 31 31 32 33 34 34 34 34 34 35 36 36 35 36 38 37 35 35 34 34 33 30 26
36 34 38 40 38 37 38 36 35 37 39 42 42 43 48 47 38 36 39 40 40 37 35 38 39 40 41 40 41 41 39 37 36 34 32 30 28 26 24 22 19 19 20 20 20 18 16 15 15 15 16 17 17 18 18 19 20 22 23 25 27 28 29 30 31 32 33 32 32 31 32 33 34 35 36 35 35 37 37 35 35 35 33 32 30 27
34 32 33 34 36 36 37 37 38 41 42 40 40 44 48 50 47 39 35 39 42 39 38 38 37 39 42 41 40 40 38 37 36 34 33 31 29 27 26 23 21 21 21 21 20 18 17 16 16 16 17 17 17 18 19 20 21 22 23 24 25 26 28 30 31 31 32 31 30 30 31 33 34 35 36 34 33 34 34 33 34 34 31 29 29 27
33 32 30 32 35 36 38 40 42 44 43 40 41 45 47 50 50 44 39 39 39 37 38 38 38 40 41 40 39 38 37 36 35 34 34 32 31 29 27 25 23 22 22 22 20 19 18 18 18 18 18 18 18 19 20 21 22 22 23 23 25 26 28 29 30 31 32 30 30 31 32 32 33 34 35 34 31 31 31 31 32 32 29 28 27 26
32 31 29 32 35 37 40 42 41 42 43 43 45 45 46 49 49 46 43 41 36 34 38 40 39 40 40 40 39 38 37 36 35 34 33 32 31 29 28 26 24 23 23 21 20 19 19 19 19 19 19 19 20 21 22 22 23 23 23 24 24 25 27 29 30 31 31 29 29 29 30 31 32 32 32 32 30 28 28 29 29 28 27 27 26 25
32 31 29 31 35 37 38 39 38 38 40 42 44 44 46 49 48 44 44 43 37 33 37 39 38 39 38 38 39 39 38 36 34 34 33 32 31 29 28 26 25 24 23 21 20 19 20 20 20 21 20 20 21 22 23 23 23 23 23 23 23 25 27 29 29 30 28 27 27 28 29 29 30 30 29 29 30 29 29 30 29 26 25 26 26 24
32 31 27 28 33 34 35 36 36 35 38 40 41 44 47 49 46 41 40 43 41 36 36 35 34 35 35 36 38 38 37 35 34 33 33 31 30 29 28 27 26 25 23 22 21 20 21 21 21 21 21 22 22 23 23 23 22 22 22 22 23 24 27 28 28 28 26 25 26 27 28 28 28 28 25 25 27 26 27 28 28 26 24 25 25 24
33 31 28 28 31 32 32 33 33 33 37 40 41 44 45 45 44 38 34 37 40 38 36 35 33 32 32 34 36 35 34 34 33 32 32 31 30 29 29 28 27 25 24 22 21 21 21 21 21 21 22 22 23 23 23 22 22 22 22 22 23 24 26 26 27 26 24 24 25 26 27 27 27 27 23 22 22 19 19 22 23 23 22 22 23 23
34 32 30 30 32 33 32 33 34 36 38 40 42 43 43 42 42 38 32 32 35 37 36 35 34 33 32 33 34 34 33 33 31 31 31 30 30 30 29 28 26 25 23 22 21 21 21 20 21 21 22 23 23 22 22 22 22 22 22 22 23 24 24 25 25 25 24 23 24 25 26 26 26 27 25 22 19 14 17 18 18 19 20 20 21 22
34 32 31 31 32 33 35 35 37 38 39 40 40 41 42 41 39 36 34 33 34 36 36 35 35 35 33 33 34 33 32 31 30 30 30 30 30 29 28 26 24 23 22 22 22 22 21 21 21 22 23 24 23 22 21 21 21 21 21 22 23 23 24 24 24 23 23 22 23 24 26 26 27 27 26 24 19 12 13 17 18 19 21 21 21 21
34 33 32 30 29 29 31 34 36 36 37 37 37 39 41 40 37 36 35 35 34 32 32 34 35 33 32 31 31 31 31 30 30 30 30 29 29 27 26 24 23 23 22 23 23 22 21 21 22 23 24 23 22 21 20 20 20 20 21 22 22 22 23 23 22 22 21 21 22 23 24 26 27 27 26 25 21 14 10 13 17 20 21 21 21 22
34 33 32 30 29 30 31 32 32 33 33 33 34 37 38 37 36 34 33 33 34 31 29 31 31 30 30 28 26 26 27 27 28 28 27 27 26 25 23 22 22 23 24 24 23 22 21 22 23 24 24 23 22 21 20 20 21 21 22 22 22 22 22 22 22 21 20 20 21 22 23 24 25 25 25 25 22 17 12 10 15 18 20 20 20 22
32 32 33 30 29 31 32 31 31 31 32 30 30 33 33 33 34 33 31 31 30 28 26 27 27 28 29 27 25 24 24 24 25 24 23 24 23 22 21 21 23 24 24 23 22 21 21 22 24 24 23 23 22 21 21 21 21 21 21 21 21 21 22 22 22 21 20 20 21 21 22 23 23 23 24 24 22 19 16 12 12 15 17 18 19 22
32 31 32 30 28 28 29 31 31 31 31 30 29 30 30 30 30 30 30 29 27 26 26 26 26 27 27 26 25 24 23 23 23 22 22 21 21 20 21 22 24 24 23 23 22 22 22 23 24 24 23 23 22 22 22 22 21 21 21 21 21 20 21 21 22 21 20 20 21 21 22 22 22 22 22 23 22 20 19 16 14 13 15 16 18 21
33 32 32 31 29 28 29 31 32 31 30 30 29 29 29 29 28 28 28 28 27 27 26 26 25 25 25 24 22 22 22 22 21 21 20 20 20 21 22 23 23 23 23 22 22 22 23 24 24 24 24 23 22 22 21 21 21 21 21 20 19 19 19 20 21 21 20 19 20 21 21 21 21 21 21 22 21 20 19 19 17 16 16 16 18 20
32 33 32 32 30 29 30 32 33 32 31 30 30 30 30 29 29 29 29 28 28 27 26 26 24 22 22 22 21 21 22 21 20 20 20 20 22 22 22 22 22 22 22 22 22 23 24 24 25 25 25 24 23 22 21 21 21 21 20 19 18 18 18 20 21 22 21 20 19 20 21 21 21 21 21 21 21 20 19 19 19 17 17 18 18 19
31 32 32 32 32 31 30 31 33 34 33 33 33 32 31 31 30 30 29 29 28 27 26 24 22 21 22 22 22 22 22 22 21 21 21 22 23 23 22 22 21 20 20 21 22 23 24 25 25 26 26 25 24 23 22 21 21 20 19 18 17 18 19 20 21 22 22 21 19 19 20 20 21 20 20 21 21 20 20 20 18 15 15 18 19 19
30 31 31 31 32 32 31 31 32 33 34 34 34 33 32 32 31 30 29 29 28 26 24 22 21 21 22 23 23 23 23 23 23 23 23 24 25 24 24 22 20 19 19 20 21 22 23 23 24 24 24 24 23 21 20 20 20 19 18 18 19 20 21 22 22 23 24 23 22 20 19 20 20 20 20 20 20 20 20 21 20 18 15 16 19 18
29 31 32 32 31 32 31 31 31 32 33 32 32 33 32 32 31 30 29 28 26 25 22 21 20 20 21 22 24 25 25 26 25 25 25 25 25 25 25 23 20 19 19 19 20 21 22 22 22 22 22 21 20 19 19 19 19 20 20 21 22 22 23 24 24 24 25 25 24 22 20 20 20 20 20 20 20 20 21 22 23 22 19 15 14 15
27 29 31 32 32 33 33 33 33 33 31 31 31 31 31 31 31 30 29 27 26 25 23 21 20 20 19 20 22 24 25 27 27 26 26 26 26 26 25 23 21 20 19 20 20 21 23 23 23 22 21 20 19 19 20 20 21 22 22 23 24 24 25 25 25 25 26 26 26 24 22 21 20 20 20 21 20 20 21 22 23 23 22 19 15 13
26 28 29 30 31 33 34 35 35 33 31 31 31 31 31 31 31 30 29 27 26 25 23 22 22 22 22 22 23 23 23 24 25 25 25 26 26 25 25 24 23 21 21 21 21 22 24 25 25 24 22 21 20 21 22 23 23 24 24 24 24 25 25 25 25 26 26 27 27 26 24 22 22 22 21 21 21 21 20 22 24 24 24 24 22 20
24 26 27 27 28 30 32 33 33 33 32 31 31 31 30 30 30 29 28 27 27 26 25 24 25 27 26 25 26 26 24 23 23 23 23 23 24 24 24 24 23 22 22 22 22 23 24 26 27 27 26 25 23 24 24 25 25 25 25 25 25 26 26 26 26 26 26 27 27 28 26 24 23 23 22 22 22 22 22 21 23 25 25 25 25 26
23 23 24 26 26 27 29 30 31 32 31 30 30 30 30 29 29 29 28 28 28 28 27 26 27 28 27 25 25 26 26 24 23 22 22 22 22 22 23 23 23 22 22 23 24 24 24 25 27 29 30 29 28 27 27 27 27 27 27 27 27 26 26 26 26 26 27 27 27 28 28 27 25 24 24 23 23 23 23 22 22 24 25 25 26 26
23 23 23 23 24 25 27 28 29 29 28 29 30 30 30 30 30 30 30 30 29 28 28 27 27 28 27 26 25 25 25 25 26 25 25 24 24 24 23 23 23 23 23 24 25 25 24 25 27 29 31 32 31 31 30 30 29 29 30 29 28 27 26 26 26 26 27 27 27 27 28 28 27 25 25 25 24 24 24 23 23 23 25 26 26 25
20 22 22 22 22 24 25 27 27 27 27 28 29 29 29 30 30 32 33 31 29 29 29 28 28 28 28 28 28 26 26 27 28 27 27 27 27 27 26 26 26 25 25 25 26 26 25 24 25 27 30 33 33 33 33 32 31 31 31 30 28 27 27 27 27 27 27 27 27 27 27 28 28 26 25 26 25 25 24 24 24 24 24 26 26 26
20 21 22 23 23 24 25 26 26 27 27 27 27 27 28 29 30 31 30 28 27 28 29 28 29 29 28 29 28 27 27 27 26 25 24 24 26 27 28 29 29 29 28 27 27 27 26 25 25 25 27 30 33 33 32 31 31 30 30 29 29 29 29 29 30 29 29 28 27 26 25 25 25 24 24 25 25 25 24 24 25 25 25 25 26 26
22 23 24 25 25 25 26 26 26 26 25 26 27 27 27 28 28 27 26 24 25 26 26 27 27 27 28 28 27 26 25 25 24 23 23 23 24 26 29 30 31 31 31 30 29 29 29 29 28 27 26 28 30 31 31 31 30 31 31 32 32 33 33 33 32 31 31 30 29 27 26 26 26 25 25 25 26 27 28 28 28 29 28 27 26 27
25 25 26 26 26 27 27 27 27 26 26 27 28 28 29 29 28 27 26 25 25 25 25 26 26 26 26 27 26 26 26 25 25 25 25 25 25 26 28 30 31 31 31 31 31 32 32 32 31 30 29 28 29 30 31 32 33 33 34 35 36 36 36 36 34 34 33 32 32 31 30 30 30 30 30 30 31 32 33 33 33 33 32 30 29 28
25 26 26 26 26 27 28 28 28 28 29 29 29 29 30 29 29 29 29 27 26 26 25 25 25 25 26 27 27 27 28 27 27 27 27 27 27 26 27 29 29 28 29 30 31 31 32 32 32 32 32 32 32 32 33 34 35 36 37 37 37 37 37 36 36 36 35 35 35 35 35 35 35 35 35 35 35 36 36 36 35 34 34 34 33 31
24 25 26 26 26 26 27 28 28 28 28 29 29 29 29 29 29 29 29 29 28 27 26 25 25 25 26 27 28 28 28 28 27 27 27 27 27 26 26 28 28 27 27 28 29 29 30 30 31 31 32 33 34 34 35 35 35 36 37 37 37 36 36 36 36 37 37 37 37 37 38 38 38 37 37 37 37 37 38 38 37 35 35 35 35 34
25 25 25 26 26 26 26 26 26 27 27 27 27 27 27 27 27 27 27 27 27 27 26 26 25 25 26 26 27 27 27 26 26 26 26 26 26 26 26 27 28 27 27 28 28 28 29 30 31 31 32 33 34 34 35 35 35 35 36 36 36 37 37 37 37 38 38 38 38 38 39 39 39 39 39 39 38 37 38 38 38 38 37 37 36 36
24 25 25 25 25 26 26 26 26 26 26 26 26 26 26 26 27 26 26 26 25 25 26 26 26 26 27 27 27 26 26 26 26 25 25 25 25 25 25 26 27 27 28 29 29 29 31 31 32 32 32 33 33 34 34 35 35 35 36 36 37 37 38 38 37 37 37 37 38 38 38 39 39 39 39 39 39 38 38 38 38 39 39 39 39 39
24 24 24 24 24 25 25 25 25 25 25 25 25 25 25 26 26 26 26 25 24 24 25 25 26 27 27 27 27 27 27 27 26 26 25 25 24 24 25 26 26 27 28 28 28 29 29 30 31 31 31 32 33 33 33 34 34 34 34 34 34 34 34 34 33 32 32 33 34 35 36 36 36 37 36 37 37 37 37 38 38 38 39 40 40 40
24 24 24 24 24 24 24 24 24 24 24 24 24 24 24 25 25 25 25 25 24 24 24 24 25 26 26 26 27 27 27 28 28 28 27 26 26 25 25 25 25 26 26 27 27 27 27 27 28 28 29 29 30 30 30 29 29 28 28 29 29 29 29 29 29 28 28 28 30 31 32 32 33 33 34 34 35 35 36 37 38 38 39 39 39 40
23 23 24 24 24 24 23 24 24 24 24 24 24 24 24 24 24 24 24 24 23 23 23 23 23 23 24 24 24 24 25 25 26 26 26 26 26 26 25 25 25 25 25 25 25 25 24 24 24 24 24 25 25 25 25 24 24 24 24 25 25 26 27 27 27 27 27 28 28 29 30 31 32 32 33 34 35 36 36 37 37 38 38 39 39 39
Wind_Direction
228 226 225 224 224 223 224 224 224 225 224 222 223 225 225 225 225 227 228 227 228 229 230 230 228 228 232 233 232 232 230 230 231 232 234 235 237 240 241 242 242 240 240 244 246 249 251 254 257 260 263 266 269 270 272 274 276 278 279 279 279 279 279 280 280 280 280 278 276 275 274 274 276 278 280 280 279 278 280 283 286 289 288 286 283 281
227 226 225 224 223 224 224 224 225 225 224 221 221 223 223 222 225 227 227 226 227 227 229 230 228 227 231 232 228 227 229 229 232 232 232 233 236 238 240 241 242 241 241 243 246 249 251 254 257 260 263 264 266 268 271 274 276 278 279 280 280 281 281 281 281 280 279 278 277 276 274 274 275 276 278 279 278 277 278 280 284 286 286 285 284 282
227 226 224 222 222 222 221 222 224 223 222 219 218 220 221 220 225 227 225 225 225 224 227 229 228 227 229 229 224 222 228 231 233 235 235 237 239 241 243 245 246 246 246 246 248 251 253 256 258 260 262 263 265 269 271 273 275 277 280 281 281 282 282 283 283 282 281 279 277 276 276 275 275 275 277 279 278 276 277 280 285 287 286 285 284 283
226 227 225 222 221 222 221 221 221 221 221 218 216 217 219 220 224 227 225 225 225 224 227 229 227 227 226 225 220 218 225 229 231 235 237 240 242 243 246 248 250 251 251 252 253 256 258 259 260 262 264 265 267 270 271 273 274 276 278 281 282 284 286 287 287 287 286 284 281 278 278 278 278 278 277 278 279 277 276 279 284 288 285 282 281 280
224 226 225 223 222 222 222 221 221 221 221 219 216 213 215 219 221 224 225 225 226 227 228 227 226 226 223 220 218 217 221 223 224 229 232 236 239 240 243 245 248 250 251 253 256 259 261 262 262 263 266 268 269 270 272 274 275 276 278 281 284 287 289 291 291 292 293 291 288 283 281 280 281 282 281 279 279 279 278 278 281 285 283 278 277 277
222 222 221 221 222 222 222 221 220 221 221 220 217 211 213 216 217 221 223 224 225 228 228 225 225 226 222 218 217 217 218 218 220 223 224 228 233 236 238 240 242 246 248 250 254 257 259 261 262 263 266 268 270 272 274 276 278 281 285 288 290 292 294 296 297 297 298 296 294 290 287 284 284 285 285 283 282 282 281 279 278 280 279 275 274 275
221 220 217 217 219 220 221 220 219 220 220 219 216 212 213 214 215 219 222 223 225 228 228 223 222 224 222 220 218 214 215 216 216 218 219 222 226 232 236 238 241 244 247 250 252 255 257 259 261 263 265 267 270 274 276 279 284 287 291 293 295 299 303 304 302 301 299 297 296 295 293 290 288 287 287 286 285 284 283 281 279 279 279 276 272 273
220 218 215 216 217 217 218 218 218 219 219 219 216 212 211 211 214 219 220 221 221 225 226 221 217 218 219 221 218 211 210 212 213 214 217 219 223 230 235 238 242 245 249 253 254 257 258 259 261 262 263 266 269 274 278 283 287 289 290 292 296 301 304 304 302 300 297 295 294 294 293 293 291 289 287 286 285 283 282 281 280 280 281 280 275 273
219 216 216 217 217 216 216 215 217 218 218 219 217 212 208 206 211 216 218 219 221 223 224 219 215 215 218 219 214 207 207 210 212 213 216 219 222 228 233 237 242 247 250 252 255 257 259 260 261 261 261 264 268 273 278 282 285 288 290 293 296 299 300 299 297 295 294 293 292 292 291 291 290 289 289 287 285 283 280 278 277 277 279 280 278 276
218 215 216 217 217 218 217 217 216 214 217 219 216 212 207 204 207 213 215 218 222 223 221 219 215 211 214 218 212 207 207 210 212 214 216 219 222 227 232 237 243 247 249 252 257 259 261 263 263 261 259 261 267 272 277 280 283 287 290 294 296 296 295 293 291 290 291 291 291 290 289 289 288 287 287 286 286 284 281 276 273 271 272 275 277 278
214 211 213 212 212 214 216 217 214 212 215 214 213 212 207 203 205 210 213 216 220 220 217 218 214 206 209 215 214 212 211 211 212 214 217 219 224 229 234 240 244 246 250 253 258 260 262 265 264 260 257 259 266 270 274 277 281 286 289 292 293 292 291 290 289 288 288 289 288 288 288 287 286 285 284 283 282 280 278 274 271 268 268 270 274 278
208 204 208 208 209 210 210 211 210 211 212 209 208 209 205 203 205 208 211 214 219 219 217 217 211 203 207 213 213 213 211 211 212 215 219 221 225 231 235 240 242 244 249 252 256 260 264 265 263 259 257 259 264 269 273 277 281 285 287 289 290 290 291 290 289 288 287 287 287 287 287 286 286 284 283 282 280 277 273 269 267 265 266 268 270 275
206 203 206 206 207 209 208 208 207 207 208 206 206 206 203 201 204 206 209 213 216 215 218 217 208 202 208 212 212 211 210 212 215 218 222 224 225 230 235 240 241 243 248 252 256 260 262 263 262 260 259 261 266 270 274 277 280 282 285 287 290 291 292 291 290 290 290 289 289 287 286 285 283 282 282 281 279 276 272 267 263 260 262 266 268 271
203 203 205 203 205 207 208 209 209 207 205 204 204 205 203 201 203 206 208 212 212 212 218 215 203 204 210 210 211 212 211 213 217 220 224 226 226 232 239 242 242 245 250 254 257 258 258 259 259 259 261 266 269 272 273 275 277 281 285 288 290 291 291 291 291 292 293 292 291 289 287 284 281 280 279 279 278 275 271 268 264 259 259 263 265 266
208 207 206 204 204 204 206 208 209 208 207 206 204 205 205 203 206 207 207 211 210 213 218 211 203 209 213 212 210 211 213 215 219 223 227 229 230 235 241 240 241 246 253 257 258 258 258 258 259 261 265 268 270 272 273 275 277 281 285 287 289 290 290 291 292 293 293 292 290 288 287 285 283 280 279 279 278 275 271 268 264 260 259 261 262 261
213 214 212 209 208 206 206 206 205 204 205 207 205 205 204 203 206 207 206 207 207 213 216 210 207 209 211 213 211 209 212 217 221 226 229 231 234 238 240 237 240 248 255 259 258 259 260 260 261 263 265 268 270 272 274 277 280 283 285 287 288 289 289 290 292 292 292 290 289 287 287 286 285 284 281 279 277 274 271 266 262 261 261 260 260 259
210 212 213 212 211 210 209 209 208 204 203 206 207 208 206 202 204 207 206 205 205 211 215 211 211 210 208 210 211 210 213 217 223 227 231 234 237 240 239 238 245 251 254 259 260 261 262 259 258 259 263 267 270 274 276 279 281 284 286 288 288 288 288 289 289 290 289 289 288 288 289 289 288 287 284 281 277 274 270 264 261 261 261 260 260 258
209 212 215 211 208 209 209 209 208 206 207 207 207 210 209 206 205 204 205 209 208 211 215 214 214 214 211 211 212 212 215 219 224 228 232 236 240 242 242 244 252 255 256 261 263 261 258 255 255 259 264 268 271 274 276 278 281 284 286 288 288 288 288 288 288 288 288 289 290 291 291 291 290 290 288 284 278 274 270 265 261 260 259 259 259 255
206 211 217 211 207 207 205 204 203 203 208 208 207 210 210 209 210 205 203 210 210 211 215 215 216 217 216 216 216 217 219 222 226 230 233 238 242 244 245 249 256 258 260 264 263 259 255 256 261 263 265 268 269 272 274 278 281 283 285 286 287 287 286 287 287 288 289 290 293 293 292 291 292 293 292 287 279 274 271 266 262 260 258 257 256 254
204 206 211 209 206 205 203 203 203 203 204 202 206 211 210 210 213 212 210 210 207 209 215 216 217 219 219 219 219 221 224 226 229 232 236 240 243 245 247 252 257 260 262 265 263 258 257 260 264 265 266 267 268 272 274 278 279 280 282 284 285 286 286 287 288 289 290 293 295 295 293 293 294 295 294 288 280 273 270 266 263 261 257 254 254 253
201 200 205 206 204 203 205 204 204 205 203 201 204 208 209 210 212 213 213 210 204 208 214 216 216 219 219 219 220 222 225 228 230 233 236 240 242 245 248 253 258 261 264 265 263 260 261 263 264 265 265 266 268 272 274 276 277 277 280 283 285 287 288 289 290 291 294 298 300 298 296 297 299 299 296 290 282 272 266 263 262 261 256 251 250 250
198 195 199 205 203 204 206 204 202 204 205 205 205 205 205 207 210 213 214 211 209 211 214 215 218 220 220 219 221 223 226 229 230 233 236 240 242 245 251 256 259 261 265 266 263 261 261 263 264 263 263 264 267 270 273 274 275 277 280 284 287 289 290 291 292 294 299 303 304 302 301 303 306 305 300 292 285 275 265 261 259 257 253 248 246 245
195 192 194 201 202 203 203 201 199 200 202 203 204 205 206 205 206 210 214 213 214 216 216 214 218 222 220 219 222 224 227 230 232 234 238 240 244 248 253 257 259 262 265 264 262 260 259 260 260 260 260 262 265 268 271 273 274 277 281 285 289 291 292 293 295 298 303 306 306 305 305 308 313 313 304 295 292 280 264 258 255 252 248 243 241 242
191 189 188 192 198 200 198 194 194 197 199 199 200 204 207 208 208 209 213 217 217 217 217 215 217 221 219 220 224 226 228 231 233 236 239 241 246 251 255 257 260 263 264 262 261 258 257 257 257 257 258 260 262 265 267 270 273 277 282 286 289 291 292 294 296 299 304 307 307 307 309 311 316 319 313 307 304 283 256 252 250 244 239 237 238 241
187 185 185 187 191 194 191 188 190 193 195 197 198 201 203 208 211 209 211 219 219 217 218 219 223 226 224 225 229 230 231 233 235 237 241 244 250 254 256 258 260 262 261 260 259 257 256 255 254 253 254 256 258 261 264 269 273 277 281 285 287 288 290 293 296 300 305 308 308 310 313 314 317 323 323 321 317 287 251 246 244 235 230 233 238 241
188 185 184 186 189 191 189 189 191 190 191 194 197 199 201 205 208 208 209 215 218 217 218 220 225 229 230 232 234 235 236 237 238 241 244 248 252 254 255 256 258 258 258 258 258 256 255 252 250 249 250 252 255 258 263 267 271 276 279 283 285 286 289 294 299 304 308 310 310 312 315 317 319 326 329 328 327 309 259 242 234 227 228 236 241 238
192 191 188 186 189 193 194 193 192 189 189 192 195 198 201 204 206 208 212 217 219 219 221 224 228 232 234 236 237 237 239 240 240 243 245 248 250 250 251 253 254 254 254 255 255 253 251 248 246 245 246 249 253 257 261 264 268 274 278 281 283 284 289 295 301 307 310 311 312 313 315 318 321 326 329 328 329 327 290 249 235 231 235 241 241 235
193 195 194 190 190 194 196 196 193 189 188 191 195 197 199 202 205 208 213 220 223 224 227 230 231 233 234 235 235 235 236 237 239 241 243 244 245 246 247 248 248 249 250 252 253 251 246 242 241 242 245 250 253 255 259 263 267 272 276 280 282 284 288 294 300 306 310 312 313 314 316 319 322 325 327 327 327 328 315 273 246 239 241 242 239 235
190 195 196 195 195 196 196 196 195 193 192 193 195 197 199 202 205 207 211 217 220 221 224 226 226 228 230 232 232 231 231 233 236 238 238 238 240 241 240 240 242 245 247 249 251 249 244 240 241 244 248 251 254 257 261 264 268 271 275 279 282 285 289 295 300 305 310 312 313 315 317 319 322 324 325 325 325 323 317 297 265 246 241 239 238 238
189 193 196 196 199 200 196 195 197 197 196 196 197 199 202 204 206 209 212 217 219 219 220 221 222 224 228 230 229 229 230 231 232 232 230 230 231 232 233 236 240 244 246 246 247 245 243 243 245 248 250 253 256 259 262 264 266 270 274 278 281 286 291 296 300 305 310 312 313 314 316 318 319 321 321 321 321 320 317 309 289 261 245 243 242 241
189 193 196 197 200 203 198 195 197 198 197 198 200 201 203 207 209 211 215 218 221 222 222 223 224 224 227 229 228 228 229 229 227 225 223 223 224 227 231 235 239 242 244 244 243 243 243 244 246 249 251 254 257 258 260 262 265 269 273 276 280 286 292 297 301 305 310 312 312 312 313 315 315 316 317 317 318 316 314 311 300 277 256 252 251 248
190 193 197 197 199 203 203 198 198 199 199 200 203 205 206 208 211 214 217 220 222 222 222 223 225 227 229 230 229 228 227 226 222 221 220 221 224 228 230 233 236 239 241 242 242 242 243 244 245 248 251 254 256 257 259 263 266 268 270 273 277 283 290 296 299 303 307 309 311 311 310 311 311 311 312 313 313 313 310 310 306 287 263 257 258 257
192 194 198 200 199 202 205 203 201 202 203 203 205 208 210 212 214 216 218 220 222 222 222 224 226 228 230 231 231 229 228 225 222 221 221 224 227 228 227 229 234 238 240 241 242 243 244 245 246 249 251 253 255 258 261 263 265 265 267 270 275 281 287 292 296 299 302 304 306 308 309 308 307 307 307 308 310 310 307 304 306 299 274 259 259 261
192 194 199 202 201 202 205 207 207 207 207 208 209 210 211 213 215 217 218 220 223 225 227 228 227 225 223 224 225 224 225 226 225 224 224 226 228 228 227 229 235 240 242 243 243 243 244 246 248 249 251 252 254 256 257 258 259 262 266 269 273 278 282 287 290 294 296 298 300 303 305 306 305 304 303 304 305 307 305 300 301 306 295 269 261 266
194 194 198 202 203 204 206 209 211 212 211 211 212 213 214 215 216 217 219 222 226 229 229 226 222 219 216 217 219 220 221 223 225 225 226 228 230 230 231 233 237 241 243 244 245 245 245 247 249 249 249 250 249 248 249 252 257 261 265 268 272 276 280 283 286 288 291 293 296 299 300 301 301 302 301 301 301 302 303 302 300 303 304 290 267 261
193 196 200 202 203 204 206 208 212 214 212 212 214 215 216 217 219 220 222 226 231 232 229 222 217 216 215 216 219 221 222 223 225 226 226 229 231 233 235 237 240 241 241 243 246 248 248 247 247 248 248 248 247 247 250 254 258 262 265 268 272 275 278 281 282 283 285 288 291 294 295 296 296 297 299 300 300 299 298 300 301 301 303 301 286 266
189 194 200 204 204 205 207 210 213 215 215 215 216 218 219 221 224 226 227 231 234 233 229 224 221 222 223 223 222 222 223 225 226 228 229 231 234 236 237 239 242 242 240 241 245 248 250 249 248 248 249 249 251 253 256 258 262 265 267 269 273 275 277 277 278 279 281 283 286 289 291 293 293 293 295 296 298 300 297 296 298 300 301 302 299 293
187 192 197 202 205 207 209 213 215 216 217 217 219 221 222 223 225 227 227 229 231 231 231 229 227 229 233 233 227 222 223 226 228 229 231 233 235 237 238 240 242 242 240 240 243 246 250 252 252 251 251 252 255 259 262 264 268 270 271 273 275 275 275 275 276 276 277 279 282 285 288 290 290 291 292 292 293 297 298 297 297 298 299 301 302 301
187 191 196 200 204 205 207 212 216 217 218 218 219 221 222 223 224 225 225 226 227 229 230 230 231 233 239 240 232 224 225 228 230 230 233 236 237 237 239 242 244 243 241 241 242 246 251 254 256 255 255 255 259 263 266 269 271 273 274 275 274 274 274 274 274 275 276 276 278 280 283 286 287 288 290 291 291 292 295 297 296 297 298 299 301 303
190 194 198 201 204 204 206 211 215 216 217 218 219 220 221 223 224 225 227 227 228 230 230 229 231 234 238 241 239 233 231 231 233 235 239 242 241 240 243 247 248 248 247 244 244 247 252 256 258 258 258 258 260 263 266 269 271 272 273 272 272 272 272 273 273 273 274 274 275 276 279 281 283 285 285 287 289 289 291 294 295 295 296 297 297 299
197 198 202 204 205 207 209 212 214 215 216 218 220 222 223 224 226 228 228 228 229 232 232 230 232 234 236 239 241 240 238 238 239 241 244 246 244 242 245 250 251 252 251 250 249 250 253 259 261 261 259 258 259 262 264 267 268 269 269 269 270 271 273 274 274 273 272 273 274 274 276 278 280 281 281 282 283 284 286 289 291 291 291 291 293 294
207 207 209 208 209 212 214 214 213 214 216 218 219 221 223 224 226 227 228 228 230 233 234 233 233 234 235 237 238 239 240 242 243 243 244 246 245 243 245 249 251 252 252 252 252 252 254 260 264 265 262 258 258 260 263 265 266 266 266 266 269 273 275 276 275 274 273 273 273 272 273 275 276 278 278 278 278 280 283 287 291 291 289 288 289 290
216 216 216 214 214 215 217 217 215 214 216 218 219 220 223 225 226 228 229 228 229 231 233 233 234 234 234 236 236 237 238 239 241 244 247 251 251 248 246 246 248 250 251 252 253 253 255 259 263 265 264 260 258 259 262 264 266 266 266 268 271 275 276 276 276 276 275 275 273 271 270 271 273 275 276 276 276 277 281 285 289 290 288 287 287 288
222 222 222 221 220 220 221 222 220 219 221 222 223 225 227 228 229 230 230 230 230 231 233 233 233 234 235 236 236 237 239 240 244 248 252 255 256 253 247 244 245 248 251 252 253 253 256 259 261 261 261 260 260 261 262 265 266 267 268 270 273 275 277 278 277 277 277 277 276 274 273 272 273 274 275 276 277 278 280 283 285 286 286 283 282 282
225 226 226 226 226 226 226 227 226 225 226 228 228 229 230 231 232 232 233 233 232 232 234 234 234 234 235 236 237 239 241 244 246 248 250 251 253 252 247 243 243 247 250 251 252 254 256 258 259 258 258 260 261 262 263 264 265 267 269 270 272 274 276 278 279 279 279 279 278 278 278 277 277 277 276 277 278 279 281 282 284 285 285 284 283 281
226 226 226 226 226 227 228 229 229 229 230 231 231 231 231 231 232 232 233 233 233 233 233 234 234 234 233 234 236 238 240 242 243 245 246 247 249 249 245 242 242 245 248 249 251 253 254 256 257 258 258 260 262 263 265 266 267 269 270 271 273 275 277 278 279 280 280 280 280 279 279 279 280 280 280 280 279 280 281 282 283 282 282 282 283 283
227 228 227 227 227 227 228 228 229 229 229 230 230 230 229 229 230 231 232 232 232 232 232 231 231 231 231 231 232 234 236 238 240 242 244 245 245 245 243 242 243 245 248 250 252 254 256 257 258 259 260 262 264 266 267 269 270 271 272 273 275 277 279 280 281 281 281 281 281 280 279 279 279 279 279 280 279 279 279 280 281 281 280 279 278 279
229 229 229 228 228 227 227 227 227 227 227 228 228 228 227 228 229 230 230 230 230 229 229 229 229 229 229 230 231 233 235 236 238 240 242 243 244 244 244 244 246 248 250 251 253 255 257 259 261 262 264 265 267 268 270 271 273 274 275 277 278 279 280 281 281 281 281 280 280 279 279 278 278 278 278 278 278 278 278 278 278 278 279 279 278 277
228 228 228 228 227 227 226 225 225 225 225 226 226 226 226 227 228 229 230 230 229 228 227 228 229 230 231 232 233 235 236 238 239 240 242 243 244 245 246 248 250 252 254 256 256 257 258 260 262 264 265 267 268 269 271 272 274 275 276 277 277 278 278 279 280 280 279 278 278 278 277 277 277 277 277 277 278 279 279 278 278 278 278 278 278 278
228 227 227 226 226 225 225 225 224 224 224 225 225 225 225 225 227 229 229 230 229 228 227 227 228 230 232 233 235 237 239 240 242 243 244 246 247 248 250 251 253 255 258 260 262 263 263 264 264 265 266 267 268 269 271 272 274 275 276 276 277 278 278 279 280 280 280 279 278 278 278 278 278 278 278 278 278 279 279 279 279 279 279 279 279 279
229 228 227 227 227 226 226 225 225 225 225 225 225 225 224 225 226 227 228 229 229 229 229 229 229 230 232 234 236 237 239 241 242 244 245 247 249 250 252 253 255 256 258 260 262 264 265 265 265 266 267 269 271 272 274 275 276 276 276 276 276 276 276 277 279 279 280 279 278 278 278 278 279 279 279 279 279 279 279 279 278 278 278 278 278 278
Height
5737 5740 5743 5746 5750 5754 5758 5761 5764 5766 5769 5773 5775 5777 5779 5781 5783 5784 5786 5790 5792 5795 5797 5797 5801 5802 5802 5804 5808 5809 5811 5812 5813 5814 5815 5816 5818 5818 5818 5819 5821 5822 5823 5823 5823 5824 5825 5825 5826 5827 5828 5828 5828 5829 5829 5829 5829 5829 5828 5827 5826 5825 5825 5824 5824 5824 5824 5823 5822 5822 5821 5821 5820 5819 5818 5818 5817 5816 5815 5815 5814 5813 5812 5811 5810 5809
5733 5736 5739 5743 5747 5751 5755 5758 5760 5763 5767 5769 5772 5774 5776 5778 5779 5780 5784 5787 5790 5793 5794 5794 5798 5799 5800 5803 5806 5807 5808 5809 5810 5811 5812 5813 5815 5816 5816 5817 5819 5820 5820 5821 5821 5822 5823 5824 5825 5826 5826 5826 5827 5827 5827 5827 5827 5826 5826 5825 5824 5823 5822 5822 5821 5821 5821 5820 5820 5819 5818 5817 5817 5816 5815 5815 5814 5814 5813 5812 5811 5811 5810 5809 5807 5806
5729 5731 5736 5740 5743 5747 5751 5754 5756 5760 5763 5766 5769 5771 5773 5776 5776 5777 5781 5784 5787 5790 5790 5791 5795 5796 5799 5802 5804 5805 5806 5807 5808 5809 5810 5812 5813 5814 5815 5816 5817 5818 5818 5819 5820 5821 5822 5823 5824 5824 5824 5825 5825 5825 5825 5825 5825 5824 5823 5822 5821 5820 5820 5819 5819 5819 5818 5818 5817 5816 5815 5814 5814 5813 5812 5812 5811 5811 5810 5810 5809 5808 5807 5806 5805 5803
5725 5729 5733 5737 5741 5744 5747 5750 5753 5756 5759 5762 5765 5768 5770 5772 5772 5775 5778 5780 5784 5786 5786 5789 5793 5795 5797 5799 5801 5803 5803 5805 5806 5807 5808 5810 5811 5812 5813 5815 5816 5817 5817 5817 5819 5820 5821 5822 5822 5822 5823 5823 5823 5823 5823 5823 5822 5822 5821 5820 5819 5818 5817 5817 5816 5816 5815 5815 5814 5813 5812 5811 5810 5810 5809 5808 5808 5807 5807 5807 5806 5805 5805 5804 5803 5801
5722 5726 5730 5735 5738 5740 5743 5747 5750 5753 5756 5759 5762 5765 5767 5768 5770 5772 5775 5778 5781 5782 5784 5788 5791 5792 5795 5797 5798 5800 5801 5803 5804 5805 5807 5808 5809 5810 5812 5813 5814 5815 5815 5816 5818 5819 5819 5820 5821 5821 5821 5821 5821 5821 5821 5820 5820 5819 5819 5818 5817 5816 5816 5815 5814 5814 5813 5812 5812 5811 5810 5809 5808 5808 5807 5806 5805 5804 5804 5804 5804 5803 5802 5801 5800 5799
5718 5720 5726 5731 5733 5736 5740 5743 5747 5750 5753 5756 5759 5762 5762 5764 5767 5769 5771 5775 5778 5779 5782 5786 5788 5790 5792 5794 5796 5797 5799 5800 5802 5804 5805 5806 5807 5808 5809 5811 5812 5813 5814 5815 5816 5817 5817 5818 5819 5819 5819 5819 5818 5818 5818 5818 5818 5817 5816 5815 5814 5814 5814 5813 5813 5812 5811 5810 5809 5808 5807 5807 5806 5805 5805 5804 5803 5802 5801 5801 5801 5801 5800 5799 5798 5796
5712 5715 5722 5725 5728 5732 5736 5740 5744 5747 5749 5752 5755 5758 5759 5761 5764 5766 5769 5773 5776 5777 5778 5783 5787 5789 5790 5791 5793 5794 5796 5798 5800 5802 5804 5805 5805 5806 5807 5809 5810 5811 5813 5814 5814 5815 5815 5816 5817 5817 5817 5816 5816 5816 5816 5816 5815 5815 5814 5812 5812 5811 5811 5811 5811 5810 5809 5807 5806 5805 5804 5803 5803 5802 5802 5801 5801 5800 5799 5799 5799 5799 5798 5797 5796 5794
5706 5712 5718 5720 5724 5728 5732 5737 5740 5743 5746 5748 5751 5754 5757 5760 5762 5764 5767 5771 5773 5773 5775 5780 5784 5786 5787 5788 5790 5792 5794 5795 5798 5800 5801 5803 5803 5804 5806 5807 5808 5810 5811 5812 5812 5813 5813 5814 5814 5815 5815 5814 5814 5814 5814 5814 5813 5812 5811 5810 5810 5809 5809 5809 5808 5807 5806 5805 5803 5801 5800 5800 5799 5798 5797 5797 5797 5796 5796 5796 5796 5796 5796 5795 5794 5792
5704 5711 5715 5718 5722 5726 5730 5734 5737 5741 5743 5744 5748 5752 5755 5757 5760 5762 5765 5767 5768 5769 5773 5777 5779 5782 5784 5786 5787 5789 5791 5793 5795 5798 5799 5801 5802 5803 5804 5806 5807 5808 5809 5810 5810 5811 5811 5811 5812 5813 5813 5812 5812 5812 5812 5812 5811 5810 5809 5808 5808 5807 5807 5806 5805 5804 5803 5801 5800 5798 5797 5797 5796 5795 5794 5794 5793 5792 5792 5792 5792 5793 5793 5793 5792 5791
5703 5709 5713 5716 5721 5725 5729 5731 5734 5738 5739 5741 5746 5750 5752 5754 5756 5758 5761 5763 5765 5767 5771 5773 5776 5780 5782 5784 5785 5786 5788 5790 5793 5795 5797 5798 5800 5801 5803 5804 5806 5807 5807 5808 5808 5809 5809 5809 5810 5811 5811 5810 5810 5810 5810 5810 5809 5808 5807 5806 5806 5805 5804 5803 5802 5801 5800 5799 5797 5796 5795 5794 5793 5793 5792 5791 5790 5790 5789 5789 5789 5789 5790 5790 5790 5789
5698 5705 5708 5712 5716 5720 5723 5727 5731 5734 5735 5739 5744 5746 5750 5752 5753 5755 5758 5760 5761 5764 5768 5770 5773 5778 5780 5781 5782 5783 5785 5787 5790 5793 5795 5797 5798 5800 5802 5803 5804 5805 5805 5806 5806 5807 5806 5807 5808 5808 5809 5808 5809 5808 5808 5808 5807 5806 5805 5804 5803 5802 5801 5800 5800 5799 5797 5796 5795 5793 5793 5792 5791 5790 5790 5789 5788 5787 5786 5786 5786 5786 5786 5785 5786 5786
5693 5699 5702 5706 5710 5713 5717 5722 5726 5728 5731 5736 5739 5742 5746 5749 5750 5752 5754 5756 5758 5762 5765 5767 5770 5775 5777 5777 5778 5780 5783 5785 5788 5790 5793 5795 5797 5798 5800 5801 5802 5803 5803 5804 5804 5804 5804 5804 5805 5806 5806 5806 5807 5807 5806 5806 5805 5804 5803 5802 5800 5799 5799 5797 5796 5796 5795 5793 5792 5791 5790 5789 5788 5787 5786 5786 5785 5784 5783 5783 5783 5783 5782 5782 5782 5783
5690 5694 5697 5701 5705 5709 5713 5717 5719 5723 5727 5731 5734 5738 5742 5744 5746 5748 5750 5752 5756 5760 5762 5764 5769 5772 5772 5773 5775 5778 5781 5783 5786 5788 5791 5793 5795 5797 5798 5799 5800 5801 5802 5802 5802 5802 5802 5802 5803 5803 5804 5804 5805 5804 5804 5803 5802 5801 5800 5799 5798 5797 5796 5794 5793 5792 5791 5790 5788 5787 5787 5786 5785 5784 5783 5782 5782 5781 5780 5780 5780 5779 5779 5778 5778 5779
5686 5689 5692 5696 5700 5704 5709 5711 5714 5718 5722 5726 5730 5734 5737 5740 5741 5744 5747 5749 5754 5757 5758 5762 5767 5768 5768 5770 5773 5776 5779 5781 5784 5786 5788 5791 5793 5795 5796 5797 5798 5799 5799 5799 5800 5800 5800 5800 5800 5801 5801 5802 5802 5802 5801 5801 5800 5799 5798 5797 5796 5794 5793 5791 5790 5788 5787 5786 5785 5784 5783 5782 5781 5780 5779 5779 5778 5777 5777 5777 5777 5777 5775 5774 5774 5775
5684 5685 5688 5692 5695 5699 5704 5707 5712 5717 5721 5724 5728 5733 5736 5738 5739 5742 5746 5749 5752 5754 5755 5760 5763 5764 5766 5768 5770 5774 5777 5779 5781 5783 5786 5788 5791 5793 5794 5795 5796 5796 5797 5797 5797 5798 5798 5798 5798 5798 5799 5799 5799 5799 5799 5798 5797 5797 5796 5795 5793 5792 5790 5788 5786 5785 5784 5783 5781 5780 5779 5778 5777 5776 5775 5775 5774 5773 5774 5774 5774 5773 5772 5771 5770 5772
5684 5687 5690 5692 5695 5698 5702 5706 5709 5714 5719 5723 5726 5730 5733 5737 5740 5742 5745 5748 5751 5752 5753 5756 5758 5760 5764 5766 5769 5772 5774 5776 5778 5781 5783 5786 5788 5790 5792 5793 5793 5794 5795 5795 5795 5795 5795 5796 5796 5796 5796 5797 5797 5796 5796 5796 5795 5794 5794 5792 5791 5789 5787 5785 5784 5782 5781 5779 5778 5777 5775 5774 5773 5772 5771 5771 5770 5769 5770 5770 5770 5769 5769 5767 5767 5768
5682 5685 5687 5690 5695 5699 5702 5705 5708 5712 5716 5719 5723 5726 5730 5734 5736 5739 5742 5745 5747 5749 5751 5753 5756 5758 5761 5763 5766 5769 5771 5774 5776 5778 5781 5783 5786 5788 5789 5790 5791 5792 5792 5792 5793 5793 5793 5793 5793 5794 5794 5794 5794 5794 5794 5793 5792 5792 5791 5789 5788 5786 5784 5783 5781 5780 5778 5777 5775 5774 5773 5771 5770 5769 5768 5767 5766 5765 5765 5765 5765 5765 5765 5765 5765 5766
5680 5682 5683 5688 5693 5696 5699 5703 5707 5711 5713 5715 5720 5724 5728 5730 5731 5735 5740 5742 5744 5747 5750 5752 5754 5757 5759 5761 5763 5765 5768 5771 5773 5776 5779 5781 5783 5785 5786 5788 5789 5789 5790 5790 5790 5790 5791 5791 5791 5792 5792 5792 5792 5791 5791 5790 5790 5789 5788 5786 5785 5783 5782 5780 5779 5777 5775 5774 5773 5771 5770 5768 5767 5765 5764 5763 5761 5760 5760 5760 5761 5761 5761 5763 5764 5763
5678 5680 5683 5687 5690 5693 5696 5699 5702 5705 5708 5714 5719 5721 5724 5727 5728 5732 5736 5738 5742 5745 5747 5750 5753 5755 5757 5759 5761 5764 5767 5769 5772 5774 5777 5779 5781 5782 5784 5785 5786 5787 5787 5787 5788 5788 5788 5789 5789 5789 5789 5789 5789 5788 5788 5787 5787 5786 5785 5784 5782 5781 5779 5777 5776 5774 5773 5772 5771 5769 5767 5765 5764 5762 5760 5758 5756 5755 5755 5756 5756 5757 5759 5761 5762 5761
5675 5678 5681 5684 5687 5690 5692 5694 5697 5700 5704 5711 5715 5717 5721 5725 5727 5730 5733 5736 5740 5744 5745 5748 5751 5754 5755 5758 5761 5763 5766 5768 5770 5772 5775 5776 5778 5779 5781 5782 5783 5784 5784 5784 5785 5785 5785 5786 5786 5786 5786 5786 5786 5786 5785 5785 5784 5784 5783 5782 5780 5778 5776 5774 5773 5771 5770 5769 5768 5767 5764 5762 5760 5758 5756 5753 5751 5750 5751 5751 5752 5754 5756 5759 5759 5759
5672 5675 5678 5680 5683 5686 5688 5691 5696 5699 5702 5706 5709 5713 5718 5721 5725 5729 5731 5734 5739 5742 5743 5746 5749 5751 5753 5756 5759 5761 5764 5766 5768 5771 5772 5774 5775 5777 5778 5779 5780 5781 5781 5781 5781 5782 5783 5783 5783 5783 5783 5784 5783 5783 5782 5782 5781 5781 5780 5779 5777 5776 5774 5772 5770 5769 5768 5767 5766 5764 5761 5759 5757 5755 5752 5750 5748 5747 5747 5747 5749 5751 5753 5755 5756 5756
5669 5673 5676 5678 5680 5683 5687 5691 5695 5698 5702 5705 5708 5712 5715 5718 5723 5726 5728 5732 5736 5738 5741 5744 5747 5749 5751 5755 5757 5759 5761 5763 5766 5768 5769 5771 5773 5774 5775 5777 5777 5777 5778 5778 5779 5779 5780 5780 5780 5781 5781 5781 5781 5780 5780 5779 5779 5778 5778 5776 5775 5774 5771 5770 5768 5767 5766 5765 5763 5761 5758 5756 5754 5751 5749 5746 5745 5744 5744 5744 5745 5747 5750 5751 5753 5753
5667 5671 5674 5677 5680 5683 5686 5689 5693 5697 5701 5704 5708 5711 5713 5716 5720 5723 5726 5730 5733 5736 5739 5743 5745 5746 5749 5752 5754 5756 5759 5761 5764 5766 5767 5769 5771 5772 5773 5774 5774 5775 5775 5775 5776 5776 5777 5777 5778 5778 5778 5778 5778 5777 5777 5776 5776 5776 5775 5774 5773 5771 5769 5768 5766 5765 5764 5762 5760 5758 5756 5754 5752 5749 5746 5744 5742 5741 5740 5740 5742 5744 5746 5748 5749 5750
5665 5669 5673 5675 5679 5682 5686 5689 5692 5695 5698 5702 5705 5709 5712 5716 5719 5723 5726 5728 5731 5734 5737 5741 5743 5744 5746 5749 5750 5754 5757 5759 5761 5763 5764 5766 5768 5769 5770 5770 5771 5772 5772 5772 5773 5774 5774 5775 5775 5775 5775 5775 5775 5775 5774 5774 5773 5773 5772 5772 5770 5769 5767 5766 5764 5762 5761 5760 5758 5755 5753 5751 5749 5747 5744 5742 5740 5738 5737 5738 5739 5741 5743 5745 5746 5747
5664 5668 5670 5673 5676 5679 5682 5685 5687 5691 5694 5698 5702 5706 5710 5715 5718 5722 5725 5727 5729 5732 5735 5738 5740 5741 5744 5746 5748 5751 5754 5756 5758 5760 5761 5763 5764 5766 5767 5767 5768 5768 5769 5769 5770 5771 5772 5772 5772 5773 5773 5773 5773 5772 5772 5771 5771 5771 5770 5769 5768 5767 5765 5764 5762 5760 5759 5757 5755 5753 5751 5749 5747 5745 5742 5740 5738 5736 5736 5736 5737 5739 5741 5742 5744 5745
5663 5666 5668 5671 5674 5676 5678 5681 5684 5687 5692 5696 5700 5704 5708 5711 5715 5720 5723 5723 5725 5728 5732 5735 5736 5738 5741 5743 5745 5748 5750 5753 5755 5757 5758 5760 5761 5762 5763 5763 5764 5765 5765 5766 5767 5768 5769 5769 5770 5770 5770 5770 5770 5770 5770 5769 5768 5768 5767 5766 5765 5764 5763 5761 5760 5758 5756 5755 5753 5751 5749 5747 5745 5743 5741 5739 5737 5735 5735 5735 5736 5738 5739 5740 5742 5743
5661 5664 5667 5670 5674 5677 5679 5681 5684 5688 5691 5695 5699 5702 5706 5710 5713 5717 5720 5721 5723 5727 5730 5732 5734 5736 5738 5741 5743 5745 5747 5750 5751 5753 5755 5756 5757 5758 5759 5760 5761 5761 5762 5763 5764 5765 5766 5766 5767 5767 5768 5768 5768 5767 5767 5766 5766 5766 5765 5764 5763 5762 5761 5760 5758 5756 5754 5753 5751 5749 5748 5745 5744 5742 5740 5738 5737 5735 5734 5735 5736 5737 5738 5739 5740 5741
5660 5663 5666 5668 5672 5675 5678 5681 5685 5689 5692 5695 5698 5700 5704 5708 5712 5715 5718 5720 5722 5726 5728 5730 5732 5734 5736 5738 5740 5742 5744 5746 5747 5749 5751 5753 5754 5755 5756 5757 5758 5758 5759 5760 5761 5762 5763 5764 5764 5764 5765 5765 5765 5765 5764 5764 5764 5763 5763 5762 5761 5760 5759 5757 5756 5754 5753 5751 5749 5748 5746 5744 5743 5741 5740 5738 5736 5735 5734 5734 5735 5735 5736 5737 5738 5738
5659 5662 5665 5668 5671 5673 5676 5681 5685 5688 5691 5694 5697 5700 5703 5706 5710 5713 5716 5718 5720 5723 5726 5727 5729 5731 5732 5734 5737 5738 5740 5742 5744 5746 5748 5749 5750 5752 5753 5754 5755 5755 5756 5757 5758 5759 5760 5761 5761 5761 5762 5762 5762 5762 5762 5761 5761 5761 5760 5759 5758 5757 5756 5755 5754 5753 5751 5750 5748 5746 5745 5743 5742 5740 5739 5737 5736 5735 5734 5734 5734 5734 5735 5735 5736 5736
5658 5661 5664 5667 5670 5673 5676 5680 5684 5687 5690 5693 5696 5699 5702 5705 5708 5711 5713 5716 5718 5721 5722 5724 5726 5728 5729 5732 5734 5736 5737 5739 5741 5743 5745 5746 5748 5749 5750 5751 5752 5752 5753 5754 5755 5756 5757 5758 5758 5758 5758 5759 5759 5759 5759 5759 5759 5758 5758 5757 5756 5755 5754 5753 5752 5751 5750 5748 5747 5745 5744 5742 5741 5739 5738 5737 5735 5735 5734 5733 5733 5733 5733 5733 5733 5733
5657 5661 5664 5667 5670 5673 5676 5679 5683 5686 5689 5692 5695 5698 5701 5703 5706 5709 5711 5714 5716 5718 5720 5722 5724 5726 5728 5730 5732 5733 5735 5737 5739 5740 5742 5744 5745 5747 5748 5749 5749 5750 5750 5752 5753 5753 5754 5754 5755 5755 5755 5756 5756 5756 5756 5756 5756 5756 5755 5755 5754 5753 5752 5751 5750 5749 5748 5747 5745 5744 5743 5742 5740 5739 5737 5736 5735 5734 5733 5732 5732 5731 5731 5731 5730 5731
5657 5660 5663 5666 5670 5672 5675 5678 5682 5685 5688 5691 5694 5697 5699 5702 5704 5707 5709 5711 5713 5716 5718 5720 5722 5724 5726 5728 5729 5731 5732 5734 5736 5738 5740 5741 5743 5744 5745 5746 5746 5747 5748 5749 5750 5750 5751 5751 5752 5752 5752 5753 5753 5753 5754 5754 5754 5753 5753 5753 5752 5751 5750 5749 5748 5747 5746 5745 5744 5743 5742 5741 5740 5738 5737 5735 5734 5733 5732 5731 5730 5729 5729 5729 5729 5729
5657 5660 5663 5666 5669 5672 5674 5677 5681 5684 5687 5689 5692 5694 5697 5700 5703 5705 5707 5709 5711 5714 5716 5718 5721 5723 5724 5726 5727 5729 5730 5732 5734 5736 5737 5739 5740 5741 5743 5743 5743 5744 5745 5746 5747 5747 5748 5749 5749 5749 5749 5750 5750 5751 5751 5751 5751 5751 5751 5750 5750 5749 5748 5747 5746 5745 5744 5743 5743 5742 5741 5740 5739 5737 5736 5734 5733 5732 5731 5730 5728 5727 5727 5727 5727 5727
5656 5660 5663 5665 5668 5671 5674 5677 5679 5682 5684 5687 5689 5693 5696 5698 5701 5703 5706 5708 5710 5712 5714 5716 5718 5720 5721 5723 5725 5727 5728 5730 5732 5733 5735 5736 5737 5739 5740 5740 5741 5742 5742 5743 5744 5745 5745 5746 5746 5746 5747 5747 5748 5748 5748 5749 5749 5748 5748 5748 5747 5746 5746 5745 5744 5743 5741 5741 5740 5740 5740 5739 5738 5736 5735 5734 5732 5731 5730 5728 5727 5726 5726 5725 5725 5726
5656 5658 5661 5664 5667 5670 5673 5676 5678 5680 5683 5686 5688 5691 5694 5696 5699 5701 5704 5706 5708 5710 5712 5714 5715 5717 5719 5720 5722 5724 5725 5727 5728 5730 5732 5733 5734 5736 5737 5738 5739 5739 5740 5740 5741 5742 5743 5743 5743 5743 5744 5744 5745 5745 5746 5746 5746 5746 5745 5745 5744 5744 5743 5742 5742 5741 5739 5738 5737 5738 5737 5737 5736 5735 5734 5733 5731 5730 5728 5727 5726 5725 5725 5724 5724 5725
5655 5658 5660 5662 5665 5668 5671 5674 5675 5678 5681 5684 5687 5689 5692 5695 5697 5699 5701 5703 5705 5707 5709 5711 5713 5715 5717 5718 5719 5721 5722 5724 5725 5727 5729 5730 5731 5733 5734 5735 5736 5737 5737 5738 5739 5739 5740 5740 5741 5741 5741 5741 5742 5742 5743 5743 5743 5742 5742 5742 5742 5741 5741 5740 5739 5738 5737 5735 5735 5734 5734 5734 5734 5733 5732 5731 5730 5729 5728 5726 5725 5724 5724 5723 5723 5723
5653 5656 5659 5661 5664 5666 5669 5671 5673 5677 5680 5683 5685 5687 5690 5692 5694 5697 5699 5701 5703 5705 5707 5709 5711 5712 5714 5715 5717 5718 5720 5721 5723 5725 5726 5727 5728 5730 5731 5732 5733 5734 5735 5736 5736 5737 5737 5737 5738 5738 5738 5739 5739 5739 5739 5739 5739 5739 5739 5739 5739 5738 5738 5737 5736 5736 5734 5733 5732 5731 5731 5731 5731 5730 5730 5729 5728 5727 5727 5725 5724 5723 5722 5721 5720 5720
5652 5655 5657 5660 5663 5665 5667 5670 5673 5675 5678 5681 5683 5685 5688 5690 5692 5694 5696 5698 5700 5701 5704 5706 5707 5709 5711 5712 5714 5715 5717 5719 5720 5722 5723 5724 5726 5727 5728 5729 5730 5730 5731 5733 5733 5734 5734 5735 5735 5735 5735 5736 5736 5736 5736 5736 5736 5736 5736 5736 5735 5735 5734 5734 5733 5733 5732 5731 5730 5729 5728 5728 5728 5727 5727 5726 5726 5725 5724 5724 5722 5721 5721 5720 5719 5718
5652 5654 5657 5659 5661 5664 5666 5669 5671 5673 5676 5679 5681 5683 5685 5687 5689 5691 5693 5695 5696 5698 5700 5702 5704 5706 5707 5709 5710 5712 5714 5716 5718 5719 5720 5721 5723 5724 5725 5725 5726 5727 5728 5729 5730 5731 5731 5732 5732 5732 5732 5732 5733 5732 5732 5732 5732 5732 5732 5732 5732 5732 5731 5731 5731 5730 5729 5729 5728 5726 5725 5725 5725 5725 5724 5723 5723 5722 5722 5721 5720 5719 5718 5718 5717 5716
5651 5653 5655 5658 5660 5662 5665 5666 5668 5671 5674 5676 5678 5680 5682 5684 5686 5688 5689 5691 5693 5695 5697 5699 5701 5702 5704 5705 5707 5709 5711 5713 5714 5716 5717 5718 5719 5721 5721 5722 5723 5724 5725 5726 5727 5728 5728 5729 5729 5729 5729 5729 5729 5729 5728 5729 5729 5728 5728 5729 5729 5728 5728 5728 5728 5727 5727 5726 5725 5724 5723 5722 5722 5722 5721 5720 5720 5720 5719 5719 5718 5717 5716 5715 5715 5715
5650 5652 5654 5657 5659 5661 5662 5664 5666 5669 5671 5673 5675 5678 5680 5682 5684 5685 5685 5688 5690 5692 5694 5696 5698 5699 5701 5702 5704 5706 5708 5709 5711 5712 5714 5715 5716 5717 5718 5719 5720 5721 5722 5723 5723 5724 5725 5725 5726 5725 5725 5725 5725 5725 5725 5725 5726 5725 5725 5725 5725 5725 5725 5725 5724 5724 5724 5723 5722 5722 5721 5720 5719 5719 5718 5717 5717 5717 5716 5716 5715 5715 5714 5713 5713 5712
5648 5650 5652 5655 5657 5659 5660 5662 5664 5667 5669 5671 5673 5675 5677 5678 5679 5681 5683 5686 5688 5689 5691 5693 5694 5696 5698 5699 5701 5703 5704 5706 5707 5708 5710 5711 5712 5713 5715 5716 5716 5717 5718 5719 5720 5721 5721 5722 5722 5722 5722 5722 5722 5722 5722 5722 5722 5722 5722 5722 5722 5722 5721 5721 5721 5720 5720 5720 5719 5719 5718 5717 5716 5716 5715 5714 5714 5713 5713 5713 5712 5712 5711 5711 5710 5710
5646 5648 5650 5652 5655 5656 5658 5660 5662 5665 5667 5668 5670 5672 5674 5675 5676 5679 5681 5684 5685 5686 5688 5689 5691 5693 5694 5696 5698 5700 5701 5702 5703 5705 5706 5707 5708 5709 5711 5712 5712 5713 5714 5715 5716 5717 5718 5718 5718 5718 5719 5718 5718 5719 5719 5719 5719 5718 5718 5718 5718 5718 5718 5718 5717 5717 5716 5716 5715 5715 5715 5714 5713 5713 5712 5712 5711 5710 5709 5709 5709 5708 5708 5708 5707 5707
5643 5645 5647 5650 5652 5654 5656 5658 5660 5663 5664 5665 5667 5669 5671 5672 5674 5676 5678 5680 5681 5683 5684 5686 5688 5690 5691 5693 5695 5696 5698 5699 5700 5701 5702 5703 5704 5705 5706 5707 5708 5709 5710 5711 5712 5713 5714 5714 5715 5715 5715 5715 5716 5716 5715 5715 5715 5715 5715 5715 5715 5714 5714 5714 5713 5713 5712 5712 5711 5711 5711 5710 5710 5709 5709 5708 5707 5707 5706 5705 5705 5704 5704 5704 5704 5704
5641 5643 5645 5647 5649 5651 5653 5655 5657 5659 5661 5662 5664 5666 5668 5670 5671 5673 5675 5677 5679 5680 5682 5683 5685 5687 5688 5690 5691 5693 5694 5696 5697 5698 5698 5699 5700 5701 5702 5703 5704 5706 5707 5707 5708 5709 5710 5710 5710 5711 5711 5712 5712 5712 5712 5712 5711 5711 5711 5711 5711 5711 5710 5710 5709 5708 5708 5708 5707 5707 5706 5706 5705 5705 5705 5704 5704 5703 5702 5701 5701 5700 5699 5698 5698 5699
5638 5640 5642 5644 5646 5648 5649 5651 5654 5656 5657 5659 5661 5663 5665 5666 5668 5670 5671 5673 5675 5677 5679 5681 5682 5684 5685 5687 5688 5689 5691 5692 5693 5694 5695 5696 5697 5697 5698 5699 5700 5701 5702 5703 5704 5705 5705 5706 5706 5707 5707 5708 5708 5708 5708 5708 5708 5708 5707 5707 5707 5707 5706 5706 5705 5704 5703 5703 5703 5702 5702 5701 5701 5700 5700 5700 5700 5699 5698 5697 5696 5696 5695 5695 5694 5694
5635 5637 5639 5641 5643 5645 5647 5648 5650 5652 5654 5656 5658 5660 5662 5663 5665 5666 5668 5670 5672 5674 5676 5677 5679 5681 5682 5683 5685 5686 5687 5688 5689 5690 5691 5692 5693 5694 5695 5695 5696 5698 5698 5699 5700 5701 5701 5702 5702 5703 5703 5704 5704 5704 5704 5704 5704 5704 5704 5703 5703 5703 5702 5701 5701 5700 5699 5698 5698 5698 5697 5697 5696 5696 5695 5695 5694 5694 5693 5692 5692 5691 5690 5690 5690 5690
5632 5634 5636 5638 5640 5642 5644 5645 5647 5649 5651 5652 5654 5656 5658 5660 5661 5663 5665 5667 5669 5671 5672 5674 5676 5677 5679 5680 5682 5683 5684 5685 5686 5687 5688 5689 5690 5690 5691 5692 5693 5694 5695 5696 5697 5698 5698 5698 5699 5699 5699 5700 5700 5700 5700 5700 5699 5699 5699 5699 5699 5698 5697 5697 5696 5696 5695 5694 5693 5693 5692 5692 5691 5691 5690 5689 5689 5689 5688 5688 5687 5686 5685 5685 5685 5685
5629 5631 5633 5635 5637 5639 5640 5642 5644 5646 5648 5649 5651 5653 5655 5657 5658 5660 5662 5664 5666 5668 5669 5671 5672 5674 5675 5677 5678 5680 5681 5682 5683 5684 5685 5685 5686 5687 5688 5689 5690 5690 5691 5692 5693 5694 5694 5695 5695 5695 5696 5696 5696 5696 5696 5696 5696 5695 5695 5695 5694 5694 5693 5692 5692 5691 5691 5690 5689 5688 5687 5687 5686 5686 5685 5685 5684 5683 5683 5682 5682 5681 5680 5680 5679 5679
5627 5628 5630 5632 5634 5636 5638 5639 5641 5643 5645 5646 5648 5650 5652 5654 5655 5657 5659 5661 5663 5664 5666 5668 5669 5671 5672 5674 5675 5676 5678 5679 5680 5681 5682 5682 5683 5684 5685 5686 5686 5687 5687 5688 5689 5690 5690 5691 5691 5692 5692 5692 5692 5692 5692 5692 5692 5691 5691 5690 5690 5690 5689 5688 5688 5687 5687 5686 5685 5684 5683 5682 5682 5681 5681 5680 5680 5679 5678 5677 5677 5676 5675 5674 5674 5673
5624 5626 5628 5629 5631 5633 5635 5637 5639 5641 5642 5644 5646 5648 5649 5651 5653 5654 5656 5658 5660 5661 5663 5665 5666 5667 5669 5671 5672 5673 5674 5676 5677 5678 5679 5679 5680 5681 5682 5682 5683 5684 5685 5685 5686 5687 5687 5687 5688 5688 5688 5689 5689 5689 5688 5688 5688 5688 5687 5687 5686 5686 5685 5685 5684 5683 5683 5682 5681 5681 5680 5678 5678 5677 5676 5675 5675 5674 5673 5672 5672 5671 5670 5669 5668 5668